Погода в Татарском Маклаково

Россия / Нижегородская область     55°48′32″N   45°34′13″E
темп.,
°C
ветер,
м/с
пор.,
м/с
влажн.,
%
обл.,
%
осадки,
мм/ч
давл.,
гПа
погр.,
м
24 июля, сб
сб2400:00+12з37952 0.1 1005138
03:00+11зсз410954 0.1 1006200
06:00+13сз498854 0.0 1007325
09:00+16ссз6773100 0.7 1009787
12:00+17ссз5565100 1.5 10101239
15:00+19с454888 1.9 10121831
18:00+18зсз354914 0.0 1013510
21:00+13зсз485812 0.0 1015122
25 июля, вс
вс2500:00+10ссз22665 0.0 101720
03:00+8зсз22710 0.0 101913
06:00+11ссз25630 0.0 1020145
09:00+18ссз34385 0.0 1021886
12:00+21сз353027 0.0 10212563
15:00+22з342978 0.0 10212730
18:00+21з34415 0.0 1021370
21:00+14зюз22544 0.0 102212
26 июля, пн
пн2600:00+12з225781 0.0 102311
03:00+15юз354977 0.0 102386
06:00+15зюз366114 0.0 1024132
09:00+21з45447 0.0 1024751
12:00+24зсз563628 0.0 10232457
15:00+23зсз673649 0.0 10231646
18:00+23сз24425 0.0 10221132
21:00+19з354835 0.0 1022107
27 июля, вт
вт2700:00+16з3656100 0.0 102278
03:00+15з48604 0.0 1022124
06:00+16з48645 0.0 1022189
09:00+23зсз45465 0.0 1022715
12:00+26зсз463540 0.0 10212520
15:00+26зсз463873 0.0 10202236
18:00+23з584439 0.0 1019462
21:00+16ссв228377 1.7 102018
28 июля, ср
ср2800:00+16з228676 1.5 102019
03:00+15з118559 1.6 102011
06:00+17з11775 0.0 101951
09:00+22зюз23563 0.0 1018566
12:00+27з46395 0.0 10172216
15:00+27з453685 0.0 10152000
18:00+25юз46475 0.0 1014239
21:00+20зюз355747 0.0 101458